This is the latest recevied weather packets stored in our database for station/object SP4FDH-13. If no packets are shown the sender has not sent any weather packets the latest 10 day(s).
| Time | Temp. | Humidity | Pressure | Rain* | Wind** | Luminosity | Snow |
|---|---|---|---|---|---|---|---|
| 1777762188 | 12.22° C | 79% | 1016 hPa | - | - | - | - |
| 1777761612 | 12.22° C | 78% | 1016.1 hPa | - | - | - | - |
| 1777761036 | 12.22° C | 79% | 1016.1 hPa | - | - | - | - |
| 1777760460 | 12.78° C | 84% | 1016.2 hPa | - | - | - | - |
| 1777759885 | 12.78° C | 81% | 1016.2 hPa | - | - | - | - |
| 1777759310 | 12.78° C | 80% | 1016.2 hPa | - | - | - | - |
| 1777758734 | 12.78° C | 73% | 1016.1 hPa | - | - | - | - |
| 1777758159 | 12.78° C | 70% | 1016.1 hPa | - | - | - | - |
| 1777757583 | 13.33° C | 68% | 1016.3 hPa | - | - | - | - |
| 1777757008 | 13.33° C | 69% | 1016.2 hPa | - | - | - | - |
| 1777756432 | 13.33° C | 68% | 1016.2 hPa | - | - | - | - |
| 1777755857 | 13.89° C | 66% | 1016.3 hPa | - | - | - | - |
| 1777755281 | 13.89° C | 64% | 1016.2 hPa | - | - | - | - |
| 1777754706 | 13.89° C | 66% | 1016.3 hPa | - | - | - | - |
| 1777754130 | 14.44° C | 69% | 1016.4 hPa | - | - | - | - |
| 1777753555 | 14.44° C | 65% | 1016.2 hPa | - | - | - | - |
| 1777752980 | 14.44° C | 64% | 1016.1 hPa | - | - | - | - |
| 1777752405 | 15° C | 59% | 1016.2 hPa | - | - | - | - |
| 1777751830 | 15° C | 59% | 1016.2 hPa | - | - | - | - |
| 1777751255 | 15.56° C | 55% | 1016.1 hPa | - | - | - | - |
| 1777750680 | 16.11° C | 54% | 1016 hPa | - | - | - | - |
| 1777750105 | 16.67° C | 54% | 1016.1 hPa | - | - | - | - |
| 1777749531 | 17.22° C | 55% | 1016.1 hPa | - | - | - | - |
| 1777748955 | 17.78° C | 54% | 1016.1 hPa | - | - | - | - |
| 1777748380 | 17.22° C | 50% | 1015.9 hPa | - | - | - | - |
* Rain since midnight (hover to see other rain measurements)
** Current wind speed in m/s (hover to see current wind gust speed)